Regional Weather Roundup
Issued by NWS

Home | Current Version | Previous Version | Text Only | Print | Product List | Glossary Off
Versions: 1 2 3 4 5 6 7 8 9 10 11 12 13 14 15 16 17 18 19 20 21 22 23 24 25 26 27 28 29 30 31 32 33 34 35 36 37 38 39 40 41 42 43 44 45 46 47 48 49 50

000
ASUS43 KDTX 261601
RWRMI
MICHIGAN HOURLY REGIONAL WEATHER ROUNDUP
NATIONAL WEATHER SERVICE DETROIT/PONTIAC MI
1200 PM EDT THU MAY 26 2016

NOTE: "FAIR" INDICATES FEW OR NO CLOUDS BELOW 12,000 FEET WITH NO
SIGNIFICANT WEATHER AND/OR OBSTRUCTION TO VISIBILITY.

MIZ047>049-052>055-059>063-066>070-074>076-081>083-261700-
SOUTHEAST LOWER MICHIGAN

CITY           SKY/WX    TMP DP  RH WIND       PRES   REMARKS
ADRIAN         MOSUNNY   79  64  60 SW14      29.98F
ALMA           CLOUDY    74  69  82 SW8       29.94F
ANN ARBOR      SUNNY     78  65  63 SW9G20    29.97F
BAD AXE        CLOUDY    77  64  65 SW9       29.95F
CARO           CLOUDY    79  67  66 SW7       29.94F
DETROIT CITY   SUNNY     80  65  59 S12       29.97S
DETROIT        PTSUNNY   80  65  59 SW12      29.98S
FLINT          PTSUNNY   82  65  56 S8        29.95F
GROSSE ILE     SUNNY     75  66  73 S12       29.97S
HILLSDALE      CLOUDY    77  60  55 SW9       29.99F
HOWELL         MOSUNNY   78  65  64 SW10      29.97F

CITY           SKY/WX    TMP DP  RH WIND       PRES   REMARKS
JACKSON        CLOUDY    79  63  57 S15       29.97F
LAMBERTVILLE   PTSUNNY   81  66  60 SW7G17    30.00R
LANSING        CLOUDY    76  66  71 SW10      29.97S
LAPEER         CLOUDY    80  62  54 W9        29.96F
MASON          CLOUDY    76  65  67 SW8       29.97S
MONROE         CLOUDY    80  67  65 SW10      29.98S
MT. CLEMENS    PTSUNNY   79  67  67 S13       29.95S
PONTIAC        CLOUDY    80  63  55 SW12      29.96F
PORT HOPE        N/A     77  63  61 SW8       29.93S
PORT HURON     SUNNY     79  64  61 S12       29.97S
TRI CITIES     PTSUNNY   79  67  66 SW16      29.94F
MIDLAND        CLOUDY    74  66  76 SW7       29.93F
TROY           CLOUDY    82  64  55 S9        29.98F
SAGINAW HB     PTSUNNY   79  64  61 SW12G17   29.93F
$$
MIZ043>046-050>051-056>058-064>065-071>073-077>080-261700-
SOUTHWEST LOWER MICHIGAN

CITY           SKY/WX    TMP DP  RH WIND       PRES   REMARKS
BATTLE CREEK   CLOUDY    75  66  73 SW12      29.98S
BENTON HARBOR  CLOUDY    77  66  68 SW14      29.96R
BIG RAPIDS     CLOUDY    72  69  90 SW5       29.92S
COLDWATER      CLOUDY    78  64  62 SW12G17   29.99R
FREMONT        CLOUDY    73  71  93 SW9       29.92S
HOLLAND        MOSUNNY   77  67  71 SW12      29.94F
GRAND RAPIDS   PTSUNNY   79  68  69 SW10      29.94F
IONIA          CLOUDY    76  67  72 S13       29.94F
KALAMAZOO      CLOUDY    76  67  73 SW8       29.97S
LUDINGTON      CLOUDY    69  65  87 S14       29.89F FOG
MARSHALL       CLOUDY    77  66  68 SW10      29.97S
MOUNT PLEASANT CLOUDY    73  67  80 SW9       29.93F
MUSKEGON       CLOUDY    71  64  78 SW15      29.92F HAZE
SOUTH HAVEN    CLOUDY    76  67  74 SW12      29.95R
$$
MIZ016>042-261700-
NORTHERN LOWER MICHIGAN

CITY           SKY/WX    TMP DP  RH WIND       PRES   REMARKS
ALPENA         PTSUNNY   78  63  59 VRB6      29.89F
BEAVER ISLAND  CLOUDY    59  57  94 SW9G16    29.86F
BELLAIRE       MOSUNNY   75  64  67 SW7       29.87F
CADILLAC       CLOUDY    70  65  85 S10       29.91F
CHARLEVOIX     CLOUDY    70  65  83 SW9G16    29.91R
FRANKFORT      MOSUNNY   69  65  85 SW5       29.86F HAZE
GAYLORD        CLOUDY    72  63  73 SW13      29.90F
GRAYLING       MOSUNNY   75  66  72 SW7       29.91F
HARBOR SPRINGS CLOUDY    69  64  84 W6        29.87F
HOUGHTON LAKE  CLOUDY    71  64  78 SW8       29.94S
MANISTEE       MOSUNNY   73  63  68 SW9G16    29.88F
OSCODA         CLOUDY    76  63  63 SW14G20   29.92F
PELLSTON       CLOUDY    69  63  81 SW6       29.88S
ROGERS CITY    PTSUNNY   74  62  67 S8        29.89S
TRAVERSE CITY  PTSUNNY   77  65  66 S8        29.85F
$$
MIZ007>008-015-261700-
EASTERN UPPER MICHIGAN

CITY           SKY/WX    TMP DP  RH WIND       PRES   REMARKS
KINROSS          N/A     63  57  82 SE12      29.88R
MACKINAC ISLAN CLOUDY    57  54  89 CALM      29.87F
NEWBERRY       CLOUDY    59  58  97 S8        29.84S FOG
S. S. MARIE    CLOUDY    63  55  75 SE7       29.87S
MUNISING         N/A     70  59  68 SW7       29.80S
$$
MIZ004>006-011>014-085-261700-
CENTRAL UPPER MICHIGAN

CITY           SKY/WX    TMP DP  RH WIND       PRES   REMARKS
MANISTIQUE     FOG       55  54  97 S3        29.84F VSB 1/4
ESCANABA       CLOUDY    64  59  82 S10       29.79F
MENOMINEE        N/A     63  61  94 S6        29.84S VSB 1
SAWYER-GWINN   CLOUDY    64  59  82 SW8       29.82S
$$
MIZ001>003-009>011-084-261700-
WESTERN UPPER MICHIGAN

CITY           SKY/WX    TMP DP  RH WIND       PRES   REMARKS
IRON MOUNTAIN  CLOUDY    69  63  81 SE5       29.79F
HOUGHTON       CLOUDY    60  56  86 W6        29.79R
COPPER HARBOR    N/A     48  47  96 N7        29.78F
IRONWOOD       CLOUDY    57  55  94 SW5       29.80R THUNDER
$$

ABBREVIATIONS USED IN REMARKS
   TC - TEMPERATURE IN CELSIUS
  WCI - WIND CHILL INDEX
   HX - HEAT INDEX
  VSB - VISIBILITY





USA.gov is the U.S. government's official web portal to all federal, state and local government web resources and services.